OE3MNS-13 Weather Reports


time (UTC)temp
C
wind
direction
speed
KPH
gust
KPH
rain 1hr
cm
rain 24hr
cm
rain mn
cm
humidity
%
barometer
mb
20260503022019 7 288 0.0 1.6 0.00 0.00 0.00 78 1017.3
20260503021017 7 0.0 0.0 0.00 0.00 0.00 77 1017.5
20260503020023 7 0.0 0.0 0.00 0.00 0.00 76 1017.4
20260503015040 7 0.0 0.0 0.00 0.00 0.00 75 1017.4
20260503014103 8 0.0 0.0 0.00 0.00 0.00 74 1017.3
20260503013040 8 0.0 0.0 0.00 0.00 0.00 73 1017.4
20260503012022 8 0.0 0.0 0.00 0.00 0.00 73 1017.5
20260503011017 8 288 0.0 1.6 0.00 0.00 0.00 73 1017.6
20260503010017 8 0.0 0.0 0.00 0.00 0.00 73 1017.5
20260503005022 8 290 0.0 1.6 0.00 0.00 0.00 72 1017.7
20260503004037 8 289 0.0 1.6 0.00 0.00 0.00 70 1017.6
20260503003020 8 291 1.6 3.2 0.00 0.00 0.00 70 1017.6
20260503002022 8 0.0 0.0 0.00 0.00 0.00 69 1017.6
20260503001017 9 0.0 0.0 0.00 0.00 0.00 69 1017.7
20260503000019 9 0.0 0.0 0.00 0.00 0.00 69 1017.9
20260502235021 9 291 0.0 1.6 0.00 0.00 0.00 67 1018.0
20260502234017 9 292 0.0 1.6 0.00 0.00 0.00 67 1018.2
20260502233018 9 0.0 0.0 0.00 0.00 0.00 67 1018.2
20260502232021 10 0.0 0.0 0.00 0.00 0.00 67 1018.3
20260502231020 10 0.0 0.0 0.00 0.00 0.00 65 1018.4
20260502230019 10 0.0 0.0 0.00 0.00 0.00 66 1018.5
20260502225024 10 293 0.0 1.6 0.00 0.00 0.00 64 1018.5
20260502224017 10 306 1.6 3.2 0.00 0.00 0.00 62 1018.5
20260502223021 10 334 0.0 1.6 0.00 0.00 0.00 63 1018.6
20260502222017 10 0.0 0.0 0.00 0.00 0.00 63 1018.6
20260502221020 11 0.0 0.0 0.00 0.00 0.00 62 1018.6
20260502220019 11 334 0.0 1.6 0.00 0.00 0.00 61 1018.7
20260502215019 11 334 0.0 1.6 0.00 0.00 0.00 61 1018.7
20260502214019 11 317 0.0 1.6 0.00 0.00 0.00 61 1018.7
20260502213021 11 271 0.0 1.6 0.00 0.00 0.00 60 1018.8
20260502212022 11 271 0.0 1.6 0.00 0.00 0.00 60 1018.9
20260502211021 11 271 0.0 1.6 0.00 0.00 0.00 59 1018.9
20260502210019 12 0.0 0.0 0.00 0.00 0.00 58 1019.1
20260502205017 12 270 0.0 1.6 0.00 0.00 0.00 58 1019.2
20260502204017 12 270 0.0 1.6 0.00 0.00 0.00 57 1019.2
20260502203045 12 270 0.0 1.6 0.00 0.00 0.00 58 1019.3
20260502202022 12 270 1.6 3.2 0.00 0.00 0.00 57 1019.4
20260502201021 12 269 0.0 1.6 0.00 0.00 0.00 56 1019.5
20260502200026 12 269 0.0 1.6 0.00 0.00 0.00 55 1019.5
20260502195020 13 169 1.6 1.6 0.00 0.00 0.00 54 1019.4
20260502194020 13 0.0 0.0 0.00 0.00 0.00 52 1019.5
20260502193018 13 0.0 0.0 0.00 0.00 0.00 52 1019.4
20260502192018 13 0.0 0.0 0.00 0.00 0.00 51 1019.4
20260502191023 14 0.0 0.0 0.00 0.00 0.00 51 1019.4
20260502190020 14 0.0 0.0 0.00 0.00 0.00 49 1019.5
20260502185019 15 0.0 0.0 0.00 0.00 0.00 49 1019.3
20260502184021 15 147 0.0 1.6 0.00 0.00 0.00 47 1019.3
20260502182021 16 147 0.0 1.6 0.00 0.00 0.00 46 1019.0
20260502181020 17 147 1.6 3.2 0.00 0.00 0.00 44 1019.0
20260502163520 22 28 3.2 9.7 0.00 0.00 0.00 30 1019.4
20260502162521 22 23 4.8 11.3 0.00 0.00 0.00 29 1019.4
20260502161538 23 26 3.2 6.4 0.00 0.00 0.00 29 1019.4
20260502160522 23 29 3.2 6.4 0.00 0.00 0.00 29 1019.5
20260502151521 24 357 4.8 11.3 0.00 0.00 0.00 26 1020.2
20260502150523 24 69 4.8 12.9 0.00 0.00 0.00 26 1020.2
20260502130518 23 20 4.8 12.9 0.00 0.00 0.00 28 1021.5
20260502123518 24 345 4.8 12.9 0.00 0.00 0.00 27 1022.0
20260502122520 23 31 4.8 11.3 0.00 0.00 0.00 26 1022.1
20260502121517 24 30 4.8 11.3 0.00 0.00 0.00 28 1022.2
20260502120541 23 26 4.8 12.9 0.00 0.00 0.00 26 1022.3
20260502115522 23 1 3.2 9.7 0.00 0.00 0.00 27 1022.4
20260502114539 23 26 6.4 14.5 0.00 0.00 0.00 27 1022.6
20260502113521 23 15 6.4 12.9 0.00 0.00 0.00 27 1022.8
20260502112519 22 128 1.6 6.4 0.00 0.00 0.00 26 1022.9
20260502111601 22 52 3.2 9.7 0.00 0.00 0.00 26 1023.0
20260502110518 23 18 4.8 11.3 0.00 0.00 0.00 26 1023.2
20260502105520 23 348 4.8 14.5 0.00 0.00 0.00 27 1023.3
20260502104542 22 328 4.8 11.3 0.00 0.00 0.00 29 1023.3
20260502103539 22 11 4.8 11.3 0.00 0.00 0.00 28 1023.5
20260502103100 22 97 4.8 11.3 0.00 0.00 0.00 30 1023.5
20260502102019 22 335 4.8 9.7 0.00 0.00 0.00 32 1023.5
20260502101019 22 288 1.6 4.8 0.00 0.00 0.00 33 1023.7
20260502100519 21 335 3.2 9.7 0.00 0.00 0.00 34 1023.8
20260502091037 20 59 1.6 4.8 0.00 0.00 0.00 38 1024.4
20260502071021 14 336 3.2 6.4 0.00 0.00 0.00 58 1025.2
20260502070017 13 16 1.6 4.8 0.00 0.00 0.00 59 1025.2
20260502065017 13 336 1.6 4.8 0.00 0.00 0.00 60 1025.2
20260502064018 12 341 1.6 3.2 0.00 0.00 0.00 64 1025.2
20260502063019 11 300 0.0 1.6 0.00 0.00 0.00 67 1025.2
20260502062017 11 298 0.0 3.2 0.00 0.00 0.00 69 1025.2
20260502061021 10 317 1.6 3.2 0.00 0.00 0.00 74 1025.1
20260502060020 10 225 0.0 1.6 0.00 0.00 0.00 75 1025.2
20260502055021 8 225 0.0 1.6 0.00 0.00 0.00 79 1025.3
20260502054021 8 225 0.0 1.6 0.00 0.00 0.00 80 1025.2
20260502053027 7 225 0.0 1.6 0.00 0.00 0.00 81 1025.3
20260502052020 7 0.0 0.0 0.00 0.00 0.00 80 1025.3
20260502051020 7 0.0 0.0 0.00 0.00 0.00 82 1025.2
20260502050024 6 0.0 0.0 0.00 0.00 0.00 83 1025.2
20260502045022 6 224 0.0 1.6 0.00 0.00 0.00 85 1025.2
20260502044019 5 224 0.0 1.6 0.00 0.00 0.00 87 1025.0
20260502043039 5 0.0 0.0 0.00 0.00 0.00 87 1025.1
20260502042022 5 0.0 0.0 0.00 0.00 0.00 86 1025.0
20260502041017 5 0.0 0.0 0.00 0.00 0.00 86 1025.0
20260502040022 5 0.0 0.0 0.00 0.00 0.00 85 1025.0
20260502035020 5 0.0 0.0 0.00 0.00 0.00 85 1025.0
20260502034017 5 0.0 0.0 0.00 0.00 0.00 84 1025.0
20260502033044 5 0.0 0.0 0.00 0.00 0.00 84 1025.0
20260502032022 5 0.0 0.0 0.00 0.00 0.00 84 1025.0
20260502031022 5 223 0.0 1.6 0.00 0.00 0.00 83 1024.9
20260502030022 5 0.0 0.0 0.00 0.00 0.00 83 1024.8
20260502025020 5 224 0.0 1.6 0.00 0.00 0.00 83 1024.9
20260502024018 5 0.0 0.0 0.00 0.00 0.00 83 1025.0
20260502023020 5 0.0 0.0 0.00 0.00 0.00 83 1025.0